Regional Weather Roundup
Issued by NWS Newport/Morehead, NC

Current Version | Previous Version | Text Only | Print | Product List | Glossary On
Versions: 1 2 3 4 5 6 7 8 9 10 11 12 13 14 15 16 17 18 19 20 21 22 23 24 25 26 27 28 29 30 31 32 33 34 35 36 37 38 39 40 41 42 43 44 45 46 47 48 49 50
000
ASUS42 KMHX 290622
RWRMHX
WEATHER ROUNDUP FOR EASTERN NORTH CAROLINA
NATIONAL WEATHER SERVICE NEWPORT/MOREHEAD CITY NC
100 AM EST MON DEC 29 2014

NOTE: "FAIR" INDICATES FEW OR NO CLOUDS BELOW 12,000 FEET
WITH NO SIGNIFICANT WEATHER AND/OR OBSTRUCTIONS TO VISIBILITY

NCZ015>017-031-032-045>047-102-103-290700-
NORTH COAST

CITY           SKY/WX    TMP DP  RH WIND       PRES   REMARKS
EDENTON        CLOUDY    56  56  98 CALM      30.05S FOG
ELIZABETH CITY CLOUDY    61  56  83 CALM      30.04S
KITTY HAWK     CLOUDY    57  57 100 W3        30.04R FOG
MANTEO         CLOUDY    55  55 100 NW3       30.05S FOG

$$

NCZ045>047-081-094-103-104-290700-
CENTRAL COAST

CITY           SKY/WX    TMP DP  RH WIND       PRES   REMARKS
FRISCO         CLOUDY    58  57  97 CALM      30.05S
SWANQUARTER      N/A     57 N/A N/A NW1       30.00S

$$

NCZ095-097-098-100-101-290700-
SOUTHERN COAST

CITY           SKY/WX    TMP DP  RH WIND       PRES   REMARKS
BEAUFORT       CLOUDY    58  58 100 CALM      30.05F
CEDAR ISLAND     N/A     59 N/A N/A CALM      30.09S
JACKSONVILLE   CLOUDY    61  58  90 CALM      30.05F
PINEY ISLAND   CLOUDY    60  56  86 CALM      30.05S
WILMINGTON     CLOUDY    60  59  96 CALM      30.05F


$$

NCZ011>013-027>030-043-044-078>080-089-090>093-098-290700-
COASTAL PLAIN

CITY           SKY/WX    TMP DP  RH WIND       PRES   REMARKS
AHOSKIE        FOG       55  54  97 CALM      30.05S VSB 1/4
CLINTON        CLOUDY    60  60 100 CALM      30.05F FOG
ELIZABETHTOWN  CLOUDY    62  61  97 CALM      30.05F
GOLDSBORO      CLOUDY    59  59 100 SW3       30.04S FOG
GREENVILLE     FOG       55  55 100 CALM      30.07F VSB 3/4
HAVELOCK         N/A     60  57  89 CALM      30.07S
KENANSVILLE    FOG       59  59  99 CALM      30.07S VSB 3/4
KINSTON        CLOUDY    59  59  99 CALM      30.06F FOG
NEW BERN       CLOUDY    62  58  86 CALM      30.07F
RICHLANDS      CLOUDY    61  57  88 CALM      30.07S
ROCKY MOUNT    FOG       53  52  96 CALM      30.05F VSB 1/4
WASHINGTON     CLOUDY    59  58  98 CALM      30.06S
WHITEVILLE     CLOUDY    60  58  95 CALM      30.04F

$$

AMZ130-135-150-152-154-156-158-170-250-252-270-ANZ085-086-088-633-658-670-290700-
MARINE OBSERVATIONS

STATION/POSITION TIME  TEMP    WIND        PRES    WAVE   SWELL
                       AIR SEA DIR/SP/G            HT/PER HT/PER
                 (UTC) (F)     (DEG/KT/KT) (MB)    (FT/S) (FT/S)
CHESAPEAKE LIGHT 0600   57     350/ 12/ 12 1017.8
64 E VA BEACH    0600   55 53  270/  4/  4 1016.6    3/ 5   2/ 5
DUCK             0600   57 50  260/  5/  6 1016.4
2 E DUCK         0600      49                N/A     2/13   2/13
10 NE DUCK       0600      50                N/A     2/13   2/13
OREGON INLET     0600   55 53  300/  4/  7 1017.4
13E OREGON INLT  0600      58                N/A     2/13   2/13
HATTERAS CG      0600   59 56  260/  2/  2 1017.7
DIAMOND BUOY     0600   64                 1017.5    3/13
17 S OCRACOKE    NOT AVBL
CAPE LOOKOUT     0600   59     260/  4/  5 1017.5
BEAUFORT LAB     0600   58 56  310/  2/  2 1016.5
30 SE NEW RIVER  0600   61 60  260/  8/  8 1018.0    3/13   2/13
5 SE WRIGHTSVLE  NOT AVBL
225 S CAPE HAT   0517   74 74  220/ 17/ 19 1019.8    4/13   2/13
41 SE CHARLESTON 0600   73 73  210/ 14/ 16 1017.0    3/14   2/14

$$



USA.gov is the U.S. government's official web portal to all federal, state and local government web resources and services.